JST7997 YPPH-YMHB

Flight info

Callsign JST7997
Flight time 3h 22m
Altitude 37000
Route MEMUP Y87 TAPAX DCT VIBUX DCT TAGOD L513 TUNGO DCT URBEN Y557 MORGO
Aircraft A320/M-SDE3FGHIRWY/LB1

Departure

Time 2026-04-30 02:29
Airport Perth International Airport (YPPH)

Arrival

Time 2026-04-30 05:51
Airport Hobart International Airport (YMHB)
Time Latitude Longitude Altitude Speed Heading
2026-04-30 02:09 -31.94420 115.97059 49 ft 0 kts 114°
2026-04-30 02:17 -31.94413 115.97040 46 ft 4 kts 114°
2026-04-30 02:17 -31.94401 115.97012 44 ft 4 kts 133°
2026-04-30 02:17 -31.94384 115.97002 46 ft 3 kts 186°
2026-04-30 02:17 -31.94358 115.97007 47 ft 4 kts 194°
2026-04-30 02:18 -31.94339 115.97012 46 ft 0 kts 194°
2026-04-30 02:22 -31.94341 115.97012 49 ft 1 kts 194°
2026-04-30 02:22 -31.94356 115.97003 47 ft 5 kts 211°
2026-04-30 02:22 -31.94374 115.96962 46 ft 6 kts 276°
2026-04-30 02:23 -31.94361 115.96905 47 ft 8 kts 282°
2026-04-30 02:23 -31.94347 115.96836 47 ft 9 kts 286°
2026-04-30 02:23 -31.94344 115.96824 46 ft 0 kts 284°
2026-04-30 02:24 -31.94344 115.96823 46 ft 1 kts 284°
2026-04-30 02:24 -31.94316 115.96781 49 ft 11 kts 341°
2026-04-30 02:24 -31.94239 115.96797 49 ft 12 kts 14°
2026-04-30 02:25 -31.94150 115.96822 49 ft 14 kts 15°
2026-04-30 02:25 -31.94050 115.96851 47 ft 16 kts 15°
2026-04-30 02:25 -31.93939 115.96887 49 ft 18 kts 15°
2026-04-30 02:25 -31.93813 115.96921 49 ft 19 kts 13°
2026-04-30 02:26 -31.93676 115.96961 49 ft 21 kts 14°
2026-04-30 02:26 -31.93526 115.97004 49 ft 23 kts 14°
2026-04-30 02:26 -31.93368 115.97052 49 ft 24 kts 14°
2026-04-30 02:26 -31.93198 115.97099 47 ft 26 kts 12°
2026-04-30 02:27 -31.93044 115.97144 49 ft 14 kts 14°
2026-04-30 02:27 -31.92955 115.97165 49 ft 8 kts 349°
2026-04-30 02:27 -31.92932 115.97096 49 ft 11 kts 284°
2026-04-30 02:27 -31.92911 115.96999 49 ft 13 kts 284°
2026-04-30 02:28 -31.92888 115.96891 49 ft 14 kts 284°
2026-04-30 02:28 -31.92892 115.96835 49 ft 6 kts 194°
2026-04-30 02:28 -31.92968 115.96814 48 ft 27 kts 193°
2026-04-30 02:28 -31.93399 115.96689 47 ft 95 kts 193°
2026-04-30 02:29 -31.94212 115.96452 51 ft 144 kts 194°
2026-04-30 02:29 -31.95312 115.96130 164 ft 173 kts 193°
2026-04-30 02:29 -31.96447 115.95789 881 ft 167 kts 194°
2026-04-30 02:29 -31.97582 115.95450 1471 ft 169 kts 195°
2026-04-30 02:30 -31.98724 115.95115 2071 ft 168 kts 195°
2026-04-30 02:30 -31.99858 115.94788 2684 ft 167 kts 194°
2026-04-30 02:30 -32.00986 115.94466 3238 ft 168 kts 193°
2026-04-30 02:30 -32.02215 115.94515 3495 ft 192 kts 162°
2026-04-30 02:31 -32.03311 115.95570 3716 ft 223 kts 123°
2026-04-30 02:31 -32.04037 115.97307 4029 ft 249 kts 117°
2026-04-30 02:31 -32.04774 115.99265 4413 ft 274 kts 116°
2026-04-30 02:31 -32.05563 116.01414 4778 ft 298 kts 116°
2026-04-30 02:32 -32.06417 116.03748 5063 ft 322 kts 116°
2026-04-30 02:32 -32.07341 116.06256 5311 ft 344 kts 116°
2026-04-30 02:32 -32.08312 116.08885 5854 ft 354 kts 115°
2026-04-30 02:32 -32.09306 116.11565 6527 ft 359 kts 115°
2026-04-30 02:33 -32.10319 116.14287 7155 ft 365 kts 115°
2026-04-30 02:33 -32.11347 116.17041 7771 ft 370 kts 115°
2026-04-30 02:33 -32.12392 116.19836 8393 ft 375 kts 115°
2026-04-30 02:33 -32.13466 116.22712 9040 ft 380 kts 115°
2026-04-30 02:34 -32.14536 116.25578 9679 ft 384 kts 115°
2026-04-30 02:34 -32.15622 116.28486 10252 ft 390 kts 115°
2026-04-30 02:34 -32.16719 116.31427 10822 ft 394 kts 115°
2026-04-30 02:34 -32.17827 116.34405 11403 ft 398 kts 115°
2026-04-30 02:35 -32.18943 116.37412 11972 ft 402 kts 115°
2026-04-30 02:35 -32.20071 116.40451 12543 ft 406 kts 115°
2026-04-30 02:35 -32.21211 116.43521 13102 ft 410 kts 115°
2026-04-30 02:35 -32.22359 116.46617 13661 ft 414 kts 115°
2026-04-30 02:36 -32.23519 116.49746 14182 ft 418 kts 115°
2026-04-30 02:36 -32.24689 116.52902 14672 ft 421 kts 115°
2026-04-30 02:36 -32.25870 116.56089 15153 ft 425 kts 115°
2026-04-30 02:36 -32.27058 116.59300 15612 ft 428 kts 115°
2026-04-30 02:37 -32.28254 116.62539 16088 ft 432 kts 115°
2026-04-30 02:37 -32.29458 116.65807 16563 ft 436 kts 115°
2026-04-30 02:37 -32.30672 116.69105 17050 ft 439 kts 115°
2026-04-30 02:37 -32.31893 116.72431 17530 ft 443 kts 115°
2026-04-30 02:38 -32.33069 116.75632 17967 ft 446 kts 115°
2026-04-30 02:38 -32.34332 116.79069 18429 ft 450 kts 115°
2026-04-30 02:38 -32.35584 116.82478 18831 ft 454 kts 115°
2026-04-30 02:38 -32.36433 116.84792 19115 ft 456 kts 115°
2026-04-30 02:39 -32.37701 116.88242 19530 ft 459 kts 115°
2026-04-30 02:39 -32.38973 116.91713 19954 ft 462 kts 115°
2026-04-30 02:39 -32.40250 116.95213 20378 ft 465 kts 115°
2026-04-30 02:39 -32.41532 116.98733 20787 ft 467 kts 115°
2026-04-30 02:40 -32.42821 117.02275 21166 ft 470 kts 115°
2026-04-30 02:40 -32.44122 117.05843 21524 ft 474 kts 115°
2026-04-30 02:40 -32.45431 117.09438 21861 ft 477 kts 115°
2026-04-30 02:40 -32.46748 117.13059 22199 ft 480 kts 115°
2026-04-30 02:41 -32.48070 117.16696 22538 ft 483 kts 115°
2026-04-30 02:41 -32.49401 117.20363 22892 ft 485 kts 115°
2026-04-30 02:41 -32.50733 117.24035 23253 ft 487 kts 115°
2026-04-30 02:41 -32.52072 117.27732 23603 ft 489 kts 115°
2026-04-30 02:42 -32.53418 117.31445 23891 ft 492 kts 115°
2026-04-30 02:42 -32.54767 117.35177 24181 ft 494 kts 115°
2026-04-30 02:42 -32.56139 117.38981 24461 ft 496 kts 115°
2026-04-30 02:42 -32.57496 117.42754 24741 ft 499 kts 115°
2026-04-30 02:43 -32.58859 117.46547 24992 ft 502 kts 115°
2026-04-30 02:43 -32.60233 117.50370 25217 ft 505 kts 115°
2026-04-30 02:43 -32.61612 117.54208 25509 ft 507 kts 115°
2026-04-30 02:43 -32.62999 117.58068 25785 ft 509 kts 115°
2026-04-30 02:44 -32.64390 117.61943 26092 ft 511 kts 115°
2026-04-30 02:44 -32.65778 117.65819 26496 ft 510 kts 115°
2026-04-30 02:44 -32.67158 117.69689 26899 ft 510 kts 114°
2026-04-30 02:44 -32.68538 117.73565 27312 ft 509 kts 114°
2026-04-30 02:45 -32.69921 117.77445 27616 ft 511 kts 114°
2026-04-30 02:45 -32.71307 117.81329 27979 ft 512 kts 114°
2026-04-30 02:45 -32.72696 117.85221 28378 ft 512 kts 114°
2026-04-30 02:45 -32.74080 117.89108 28797 ft 511 kts 114°
2026-04-30 02:46 -32.75464 117.92995 29219 ft 511 kts 114°
2026-04-30 02:46 -32.76846 117.96886 29650 ft 510 kts 114°
2026-04-30 02:46 -32.78222 118.00766 30089 ft 510 kts 114°
2026-04-30 02:46 -32.79592 118.04644 30440 ft 510 kts 114°
2026-04-30 02:47 -32.80963 118.08537 30700 ft 512 kts 114°
2026-04-30 02:47 -32.82339 118.12449 30943 ft 514 kts 114°
2026-04-30 02:47 -32.83722 118.16380 31206 ft 516 kts 114°
2026-04-30 02:47 -32.85114 118.20326 31474 ft 518 kts 114°
2026-04-30 02:48 -32.86511 118.24283 31802 ft 520 kts 114°
2026-04-30 02:48 -32.87909 118.28253 32095 ft 521 kts 114°
2026-04-30 02:48 -32.89308 118.32236 32386 ft 522 kts 114°
2026-04-30 02:48 -32.90706 118.36234 32673 ft 524 kts 113°
2026-04-30 02:49 -32.92106 118.40244 32912 ft 526 kts 113°
2026-04-30 02:49 -32.93511 118.44277 33167 ft 528 kts 113°
2026-04-30 02:49 -32.94939 118.48372 33452 ft 530 kts 113°
2026-04-30 02:49 -32.96356 118.52430 33741 ft 531 kts 113°
2026-04-30 02:50 -32.97777 118.56501 34026 ft 533 kts 113°
2026-04-30 02:50 -32.99197 118.60586 34280 ft 534 kts 113°
2026-04-30 02:50 -33.00617 118.64678 34607 ft 534 kts 113°
2026-04-30 02:50 -33.02032 118.68767 34899 ft 534 kts 113°
2026-04-30 02:51 -33.03449 118.72863 35035 ft 535 kts 113°
2026-04-30 02:51 -33.06302 118.81110 35052 ft 539 kts 113°
2026-04-30 02:52 -33.09157 118.89385 35055 ft 540 kts 113°
2026-04-30 02:52 -33.12014 118.97666 35027 ft 540 kts 113°
2026-04-30 02:53 -33.14865 119.05967 35063 ft 541 kts 113°
2026-04-30 02:53 -33.17708 119.14262 35036 ft 540 kts 113°
2026-04-30 02:54 -33.20506 119.22483 35034 ft 540 kts 113°
2026-04-30 02:54 -33.23339 119.30796 35013 ft 541 kts 113°
2026-04-30 02:55 -33.26167 119.39122 35020 ft 541 kts 113°
2026-04-30 02:55 -33.28999 119.47461 35053 ft 542 kts 113°
2026-04-30 02:56 -33.31823 119.55813 35038 ft 542 kts 112°
2026-04-30 02:56 -33.34635 119.64180 35035 ft 542 kts 112°
2026-04-30 02:57 -33.37443 119.72547 35037 ft 542 kts 112°
2026-04-30 02:57 -33.40264 119.80978 35059 ft 542 kts 112°
2026-04-30 02:58 -33.43069 119.89360 35045 ft 543 kts 112°
2026-04-30 02:58 -33.45865 119.97752 35041 ft 543 kts 112°
2026-04-30 02:59 -33.48678 120.06217 35037 ft 543 kts 112°
2026-04-30 02:59 -33.51468 120.14618 35011 ft 543 kts 112°
2026-04-30 03:00 -33.54250 120.23034 35043 ft 543 kts 112°
2026-04-30 03:00 -33.57030 120.31464 35035 ft 544 kts 112°
2026-04-30 03:01 -33.59806 120.39898 35015 ft 544 kts 112°
2026-04-30 03:01 -33.62579 120.48350 35016 ft 544 kts 112°
2026-04-30 03:02 -33.65343 120.56805 35014 ft 545 kts 112°
2026-04-30 03:02 -33.68104 120.65274 35037 ft 545 kts 112°
2026-04-30 03:03 -33.70885 120.73805 35035 ft 545 kts 112°
2026-04-30 03:03 -33.75196 120.86442 35032 ft 544 kts 120°
2026-04-30 03:04 -33.79473 120.93846 35058 ft 538 kts 132°
2026-04-30 03:04 -33.84111 121.00920 35019 ft 539 kts 131°
2026-04-30 03:05 -33.88773 121.08064 35015 ft 539 kts 131°
2026-04-30 03:05 -33.93392 121.15181 35016 ft 539 kts 131°
2026-04-30 03:06 -33.98007 121.22303 35021 ft 539 kts 131°
2026-04-30 03:06 -34.02623 121.29421 34987 ft 539 kts 131°
2026-04-30 03:07 -34.07244 121.36545 35001 ft 540 kts 131°
2026-04-30 03:07 -34.11864 121.43694 35000 ft 540 kts 131°
2026-04-30 03:08 -34.16476 121.50855 35006 ft 540 kts 131°
2026-04-30 03:08 -34.21088 121.58028 35001 ft 541 kts 131°
2026-04-30 03:09 -34.25698 121.65209 35035 ft 541 kts 131°
2026-04-30 03:09 -34.30309 121.72406 35030 ft 541 kts 131°
2026-04-30 03:10 -34.34170 121.78442 35024 ft 541 kts 131°
2026-04-30 03:10 -34.38777 121.85661 35001 ft 542 kts 131°
2026-04-30 03:11 -34.43377 121.92889 35038 ft 542 kts 131°
2026-04-30 03:11 -34.47978 122.00122 35032 ft 542 kts 131°
2026-04-30 03:12 -34.52572 122.07367 35021 ft 542 kts 131°
2026-04-30 03:12 -34.57941 122.15839 35033 ft 542 kts 131°
2026-04-30 03:13 -34.61760 122.21872 35027 ft 542 kts 131°
2026-04-30 03:13 -34.66341 122.29144 35022 ft 542 kts 130°
2026-04-30 03:14 -34.70914 122.36433 35030 ft 542 kts 130°
2026-04-30 03:14 -34.75488 122.43720 35024 ft 542 kts 131°
2026-04-30 03:15 -34.80070 122.51012 35019 ft 542 kts 130°
2026-04-30 03:15 -34.84639 122.58321 35017 ft 543 kts 130°
2026-04-30 03:16 -34.89202 122.65641 35017 ft 542 kts 130°
2026-04-30 03:16 -34.93791 122.73017 35014 ft 542 kts 130°
2026-04-30 03:17 -34.98350 122.80336 35016 ft 542 kts 130°
2026-04-30 03:17 -35.02906 122.87673 35032 ft 542 kts 130°
2026-04-30 03:18 -35.07448 122.95021 35006 ft 542 kts 130°
2026-04-30 03:18 -35.11980 123.02375 35007 ft 542 kts 130°
2026-04-30 03:19 -35.16513 123.09746 35036 ft 542 kts 130°
2026-04-30 03:19 -35.21048 123.17109 35005 ft 541 kts 130°
2026-04-30 03:20 -35.25573 123.24466 35007 ft 541 kts 130°
2026-04-30 03:20 -35.30090 123.31837 35038 ft 541 kts 130°
2026-04-30 03:21 -35.34598 123.39216 35027 ft 541 kts 129°
2026-04-30 03:21 -35.39117 123.46639 35021 ft 540 kts 129°
2026-04-30 03:22 -35.43614 123.54013 35038 ft 539 kts 129°
2026-04-30 03:22 -35.48071 123.61357 34999 ft 536 kts 129°
2026-04-30 03:23 -35.52518 123.68699 34977 ft 536 kts 129°
2026-04-30 03:23 -35.56966 123.76048 34976 ft 537 kts 129°
2026-04-30 03:24 -35.61417 123.83426 34977 ft 538 kts 129°
2026-04-30 03:24 -35.65869 123.90824 34985 ft 538 kts 129°
2026-04-30 03:25 -35.70312 123.98239 35004 ft 539 kts 129°
2026-04-30 03:25 -35.74758 124.05669 35006 ft 539 kts 129°
2026-04-30 03:26 -35.79212 124.13090 35005 ft 539 kts 129°
2026-04-30 03:26 -35.83655 124.20518 35001 ft 538 kts 129°
2026-04-30 03:27 -35.88084 124.27955 35001 ft 538 kts 129°
2026-04-30 03:27 -35.92508 124.35405 34998 ft 538 kts 129°
2026-04-30 03:28 -35.96922 124.42855 35004 ft 538 kts 128°
2026-04-30 03:28 -36.01336 124.50319 35002 ft 537 kts 128°
2026-04-30 03:29 -36.05775 124.57824 34990 ft 537 kts 128°
2026-04-30 03:29 -36.10175 124.65292 34995 ft 537 kts 128°
2026-04-30 03:30 -36.14573 124.72760 35007 ft 537 kts 128°
2026-04-30 03:30 -36.18960 124.80237 34995 ft 537 kts 128°
2026-04-30 03:31 -36.23340 124.87724 34989 ft 537 kts 128°
2026-04-30 03:31 -36.27714 124.95212 35002 ft 536 kts 128°
2026-04-30 03:32 -36.31767 125.02966 34978 ft 537 kts 118°
2026-04-30 03:32 -36.35218 125.11183 34985 ft 537 kts 118°
2026-04-30 03:33 -36.38664 125.19404 35000 ft 537 kts 118°
2026-04-30 03:33 -36.42118 125.27622 34976 ft 537 kts 118°
2026-04-30 03:34 -36.45564 125.35851 34979 ft 537 kts 118°
2026-04-30 03:34 -36.48992 125.44084 34994 ft 536 kts 117°
2026-04-30 03:35 -36.52414 125.52318 34969 ft 536 kts 117°
2026-04-30 03:35 -36.55834 125.60553 34975 ft 536 kts 117°
2026-04-30 03:36 -36.59239 125.68802 34999 ft 536 kts 117°
2026-04-30 03:36 -36.62666 125.77111 34973 ft 536 kts 117°
2026-04-30 03:37 -36.66059 125.85363 34970 ft 535 kts 117°
2026-04-30 03:37 -36.69444 125.93625 34994 ft 535 kts 117°
2026-04-30 03:38 -36.72831 126.01891 34984 ft 535 kts 117°
2026-04-30 03:38 -36.76210 126.10153 34980 ft 535 kts 117°
2026-04-30 03:39 -36.79584 126.18426 34974 ft 535 kts 117°
2026-04-30 03:39 -36.82943 126.26706 34950 ft 535 kts 117°
2026-04-30 03:40 -36.86306 126.34989 34956 ft 535 kts 117°
2026-04-30 03:40 -36.89666 126.43280 34965 ft 535 kts 117°
2026-04-30 03:41 -36.93000 126.51587 34952 ft 535 kts 116°
2026-04-30 03:41 -36.96334 126.59898 34961 ft 535 kts 117°
2026-04-30 03:42 -36.99126 126.66860 34962 ft 535 kts 116°
2026-04-30 03:42 -37.02457 126.75173 34961 ft 534 kts 117°
2026-04-30 03:43 -37.05787 126.83493 34964 ft 534 kts 116°
2026-04-30 03:43 -37.09099 126.91813 34961 ft 534 kts 116°
2026-04-30 03:44 -37.12403 127.00143 34949 ft 534 kts 116°
2026-04-30 03:44 -37.15702 127.08468 34955 ft 533 kts 116°
2026-04-30 03:45 -37.18993 127.16800 34955 ft 533 kts 116°
2026-04-30 03:45 -37.22280 127.25137 34951 ft 533 kts 116°
2026-04-30 03:46 -37.25548 127.33482 34955 ft 533 kts 116°
2026-04-30 03:46 -37.28818 127.41834 34953 ft 532 kts 116°
2026-04-30 03:47 -37.32080 127.50179 34950 ft 532 kts 116°
2026-04-30 03:47 -37.35335 127.58531 34945 ft 532 kts 116°
2026-04-30 03:48 -37.38583 127.66884 34943 ft 532 kts 116°
2026-04-30 03:48 -37.41827 127.75241 34940 ft 532 kts 115°
2026-04-30 03:49 -37.45066 127.83599 34944 ft 531 kts 115°
2026-04-30 03:49 -37.48286 127.91972 34941 ft 531 kts 115°
2026-04-30 03:50 -37.51520 128.00400 34936 ft 531 kts 115°
2026-04-30 03:50 -37.54732 128.08767 34937 ft 530 kts 115°
2026-04-30 03:51 -37.57938 128.17138 34931 ft 530 kts 115°
2026-04-30 03:51 -37.61139 128.25517 34930 ft 530 kts 115°
2026-04-30 03:52 -37.64329 128.33897 34924 ft 530 kts 115°
2026-04-30 03:52 -37.67512 128.42282 34926 ft 529 kts 115°
2026-04-30 03:53 -37.70685 128.50663 34938 ft 529 kts 115°
2026-04-30 03:53 -37.73844 128.59055 34930 ft 529 kts 114°
2026-04-30 03:54 -37.76996 128.67439 34905 ft 528 kts 114°
2026-04-30 03:54 -37.80147 128.75824 34905 ft 528 kts 114°
2026-04-30 03:55 -37.83294 128.84228 34905 ft 528 kts 114°
2026-04-30 03:55 -37.86419 128.92638 34881 ft 528 kts 114°
2026-04-30 03:56 -37.89572 129.01108 34907 ft 528 kts 114°
2026-04-30 03:56 -37.92697 129.09519 34911 ft 528 kts 114°
2026-04-30 03:57 -37.95804 129.17939 34904 ft 527 kts 114°
2026-04-30 03:57 -37.98917 129.26360 34907 ft 527 kts 114°
2026-04-30 03:58 -38.02027 129.34783 34906 ft 527 kts 114°
2026-04-30 03:58 -38.05121 129.43214 34900 ft 527 kts 113°
2026-04-30 03:59 -38.08205 129.51648 34901 ft 527 kts 113°
2026-04-30 03:59 -38.11290 129.60088 34903 ft 527 kts 113°
2026-04-30 04:00 -38.14360 129.68537 34906 ft 527 kts 113°
2026-04-30 04:00 -38.17433 129.76992 34871 ft 527 kts 113°
2026-04-30 04:01 -38.20502 129.85453 34888 ft 527 kts 113°
2026-04-30 04:01 -38.23554 129.93930 34889 ft 527 kts 112°
2026-04-30 04:02 -38.26602 130.02418 34887 ft 527 kts 112°
2026-04-30 04:02 -38.29661 130.10961 34897 ft 527 kts 112°
2026-04-30 04:03 -38.32704 130.19457 34888 ft 527 kts 112°
2026-04-30 04:03 -38.35739 130.27953 34901 ft 527 kts 112°
2026-04-30 04:04 -38.38767 130.36449 34888 ft 526 kts 112°
2026-04-30 04:04 -38.41778 130.44943 34903 ft 526 kts 112°
2026-04-30 04:05 -38.44781 130.53444 34890 ft 525 kts 112°
2026-04-30 04:05 -38.47781 130.61944 34901 ft 525 kts 112°
2026-04-30 04:06 -38.50764 130.70452 34899 ft 525 kts 111°
2026-04-30 04:06 -38.53743 130.78960 34875 ft 525 kts 111°
2026-04-30 04:07 -38.56747 130.87524 34890 ft 525 kts 111°
2026-04-30 04:08 -38.61210 131.00302 34898 ft 525 kts 111°
2026-04-30 04:08 -38.64166 131.08826 34900 ft 524 kts 111°
2026-04-30 04:09 -38.67113 131.17358 34896 ft 524 kts 111°
2026-04-30 04:09 -38.70056 131.25894 34896 ft 524 kts 111°
2026-04-30 04:10 -38.72999 131.34426 34897 ft 524 kts 111°
2026-04-30 04:10 -38.75933 131.42975 34897 ft 524 kts 111°
2026-04-30 04:11 -38.78863 131.51529 34898 ft 524 kts 111°
2026-04-30 04:11 -38.81777 131.60088 34900 ft 524 kts 111°
2026-04-30 04:12 -38.84685 131.68654 34903 ft 524 kts 111°
2026-04-30 04:12 -38.87585 131.77223 34903 ft 524 kts 111°
2026-04-30 04:13 -38.90489 131.85796 34880 ft 524 kts 111°
2026-04-30 04:13 -38.93388 131.94376 34888 ft 524 kts 111°
2026-04-30 04:14 -38.96279 132.02975 34894 ft 524 kts 111°
2026-04-30 04:14 -38.99161 132.11578 34899 ft 524 kts 111°
2026-04-30 04:15 -39.01562 132.18793 34902 ft 524 kts 111°
2026-04-30 04:15 -39.04429 132.27407 34912 ft 524 kts 111°
2026-04-30 04:16 -39.07294 132.36021 34915 ft 523 kts 111°
2026-04-30 04:16 -39.10152 132.44633 34914 ft 523 kts 111°
2026-04-30 04:17 -39.12996 132.53252 34916 ft 523 kts 111°
2026-04-30 04:17 -39.15830 132.61868 34919 ft 522 kts 111°
2026-04-30 04:18 -39.18654 132.70477 34916 ft 521 kts 111°
2026-04-30 04:18 -39.21472 132.79089 34925 ft 521 kts 111°
2026-04-30 04:19 -39.24300 132.87751 34925 ft 520 kts 110°
2026-04-30 04:19 -39.27100 132.96343 34906 ft 519 kts 110°
2026-04-30 04:20 -39.29877 133.04922 34927 ft 517 kts 110°
2026-04-30 04:20 -39.32636 133.13483 34931 ft 516 kts 110°
2026-04-30 04:21 -39.35409 133.22096 34933 ft 515 kts 110°
2026-04-30 04:21 -39.38155 133.30645 34934 ft 515 kts 110°
2026-04-30 04:22 -39.40899 133.39192 34929 ft 515 kts 110°
2026-04-30 04:22 -39.43632 133.47746 34930 ft 515 kts 110°
2026-04-30 04:23 -39.46354 133.56313 34927 ft 515 kts 110°
2026-04-30 04:23 -39.49076 133.64879 34931 ft 514 kts 109°
2026-04-30 04:24 -39.51790 133.73445 34937 ft 514 kts 109°
2026-04-30 04:24 -39.54492 133.82023 34937 ft 514 kts 109°
2026-04-30 04:25 -39.57187 133.90609 34940 ft 514 kts 109°
2026-04-30 04:25 -39.59872 133.99188 34941 ft 514 kts 109°
2026-04-30 04:26 -39.62552 134.07772 34919 ft 513 kts 109°
2026-04-30 04:26 -39.65223 134.16359 34914 ft 513 kts 109°
2026-04-30 04:27 -39.67890 134.24948 34930 ft 513 kts 109°
2026-04-30 04:27 -39.70577 134.33600 34936 ft 513 kts 109°
2026-04-30 04:28 -39.73232 134.42199 34943 ft 513 kts 109°
2026-04-30 04:28 -39.75874 134.50800 34944 ft 513 kts 108°
2026-04-30 04:29 -39.78519 134.59414 34950 ft 513 kts 108°
2026-04-30 04:29 -39.81151 134.68034 34946 ft 513 kts 108°
2026-04-30 04:30 -39.83758 134.76604 34950 ft 513 kts 108°
2026-04-30 04:30 -39.86347 134.85163 34953 ft 512 kts 108°
2026-04-30 04:31 -39.88959 134.93798 34954 ft 512 kts 108°
2026-04-30 04:31 -39.91567 135.02423 34961 ft 512 kts 108°
2026-04-30 04:32 -39.94162 135.11050 34964 ft 511 kts 108°
2026-04-30 04:32 -39.96746 135.19674 34965 ft 511 kts 108°
2026-04-30 04:33 -39.99323 135.28297 34958 ft 510 kts 108°
2026-04-30 04:33 -40.01891 135.36917 34962 ft 510 kts 108°
2026-04-30 04:34 -40.04451 135.45542 34973 ft 509 kts 108°
2026-04-30 04:34 -40.06999 135.54163 34970 ft 509 kts 108°
2026-04-30 04:35 -40.09557 135.62843 34971 ft 508 kts 108°
2026-04-30 04:35 -40.12088 135.71459 34972 ft 508 kts 108°
2026-04-30 04:36 -40.14615 135.80077 34977 ft 508 kts 107°
2026-04-30 04:36 -40.17127 135.88702 34977 ft 507 kts 107°
2026-04-30 04:37 -40.19638 135.97328 34977 ft 507 kts 107°
2026-04-30 04:37 -40.22167 136.06000 34984 ft 507 kts 107°
2026-04-30 04:38 -40.24651 136.14566 34981 ft 507 kts 107°
2026-04-30 04:38 -40.27151 136.23248 34980 ft 506 kts 107°
2026-04-30 04:39 -40.29627 136.31881 34983 ft 506 kts 107°
2026-04-30 04:39 -40.32110 136.40573 34977 ft 506 kts 108°
2026-04-30 04:40 -40.34567 136.49209 34991 ft 505 kts 107°
2026-04-30 04:40 -40.37023 136.57826 34997 ft 505 kts 107°
2026-04-30 04:41 -40.39471 136.66447 35000 ft 504 kts 107°
2026-04-30 04:41 -40.41905 136.75075 35004 ft 504 kts 107°
2026-04-30 04:42 -40.44328 136.83707 35005 ft 504 kts 107°
2026-04-30 04:42 -40.46758 136.92335 35010 ft 504 kts 107°
2026-04-30 04:43 -40.49178 137.00971 35006 ft 504 kts 107°
2026-04-30 04:43 -40.51587 137.09622 35003 ft 504 kts 107°
2026-04-30 04:44 -40.53586 137.16823 35003 ft 505 kts 107°
2026-04-30 04:44 -40.56005 137.25555 35007 ft 505 kts 107°
2026-04-30 04:45 -40.58407 137.34245 35014 ft 505 kts 106°
2026-04-30 04:45 -40.60796 137.42935 35020 ft 505 kts 106°
2026-04-30 04:46 -40.63175 137.51637 35018 ft 505 kts 106°
2026-04-30 04:46 -40.65527 137.60240 35022 ft 505 kts 106°
2026-04-30 04:47 -40.67897 137.68946 35019 ft 505 kts 107°
2026-04-30 04:47 -40.70262 137.77661 35030 ft 504 kts 107°
2026-04-30 04:48 -40.72631 137.86419 35025 ft 504 kts 107°
2026-04-30 04:48 -40.74990 137.95184 35028 ft 504 kts 107°
2026-04-30 04:49 -40.77328 138.03904 35037 ft 504 kts 107°
2026-04-30 04:49 -40.79658 138.12617 35038 ft 504 kts 107°
2026-04-30 04:50 -40.81979 138.21349 35048 ft 504 kts 107°
2026-04-30 04:50 -40.84298 138.30071 35045 ft 503 kts 107°
2026-04-30 04:51 -40.86609 138.38797 35055 ft 503 kts 107°
2026-04-30 04:51 -40.88923 138.47523 35055 ft 503 kts 107°
2026-04-30 04:52 -40.91227 138.56253 35058 ft 503 kts 107°
2026-04-30 04:52 -40.93512 138.64992 35062 ft 502 kts 106°
2026-04-30 04:53 -40.95778 138.73735 35061 ft 502 kts 106°
2026-04-30 04:53 -40.98051 138.82479 35067 ft 502 kts 106°
2026-04-30 04:54 -41.00318 138.91218 35051 ft 502 kts 106°
2026-04-30 04:54 -41.02571 138.99956 35078 ft 501 kts 106°
2026-04-30 04:55 -41.04833 139.08739 35082 ft 500 kts 106°
2026-04-30 04:55 -41.07064 139.17465 35083 ft 499 kts 106°
2026-04-30 04:56 -41.09297 139.26177 35088 ft 499 kts 105°
2026-04-30 04:56 -41.11512 139.34900 35084 ft 499 kts 105°
2026-04-30 04:57 -41.13718 139.43619 35085 ft 499 kts 105°
2026-04-30 04:57 -41.15919 139.52347 35087 ft 499 kts 105°
2026-04-30 04:58 -41.18119 139.61073 35090 ft 499 kts 105°
2026-04-30 04:58 -41.20312 139.69811 35087 ft 499 kts 105°
2026-04-30 04:59 -41.22496 139.78545 35090 ft 498 kts 105°
2026-04-30 04:59 -41.24667 139.87289 35093 ft 498 kts 105°
2026-04-30 05:00 -41.26833 139.96029 35098 ft 498 kts 105°
2026-04-30 05:00 -41.29013 140.04842 35094 ft 499 kts 105°
2026-04-30 05:01 -41.31160 140.13557 35096 ft 499 kts 105°
2026-04-30 05:01 -41.33325 140.22385 35100 ft 499 kts 104°
2026-04-30 05:02 -41.35462 140.31168 35100 ft 499 kts 104°
2026-04-30 05:02 -41.37598 140.39953 35108 ft 499 kts 104°
2026-04-30 05:03 -41.39737 140.48744 35107 ft 499 kts 104°
2026-04-30 05:03 -41.41867 140.57541 35096 ft 499 kts 104°
2026-04-30 05:04 -41.43984 140.66348 35100 ft 499 kts 104°
2026-04-30 05:04 -41.46093 140.75160 35102 ft 499 kts 104°
2026-04-30 05:05 -41.48201 140.83981 35105 ft 499 kts 104°
2026-04-30 05:05 -41.50304 140.92810 35110 ft 499 kts 104°
2026-04-30 05:06 -41.52566 141.06257 35111 ft 493 kts 92°
2026-04-30 05:06 -41.53377 141.15341 35114 ft 493 kts 92°
2026-04-30 05:07 -41.54193 141.24431 35095 ft 493 kts 92°
2026-04-30 05:07 -41.54999 141.33527 35102 ft 493 kts 92°
2026-04-30 05:08 -41.55799 141.42697 35108 ft 494 kts 92°
2026-04-30 05:08 -41.56584 141.51804 35122 ft 494 kts 92°
2026-04-30 05:09 -41.57369 141.60908 35123 ft 494 kts 92°
2026-04-30 05:09 -41.58148 141.70022 35127 ft 494 kts 91°
2026-04-30 05:10 -41.58912 141.79139 35137 ft 494 kts 91°
2026-04-30 05:10 -41.59671 141.88255 35138 ft 494 kts 91°
2026-04-30 05:11 -41.60426 141.97381 35122 ft 494 kts 91°
2026-04-30 05:11 -41.61171 142.06499 35125 ft 494 kts 91°
2026-04-30 05:12 -41.61902 142.15620 35141 ft 494 kts 91°
2026-04-30 05:12 -41.62628 142.24741 35144 ft 494 kts 91°
2026-04-30 05:13 -41.63360 142.33865 35145 ft 494 kts 91°
2026-04-30 05:13 -41.64081 142.42996 35138 ft 494 kts 91°
2026-04-30 05:14 -41.64785 142.52128 35143 ft 494 kts 91°
2026-04-30 05:14 -41.65371 142.59790 35145 ft 494 kts 91°
2026-04-30 05:15 -41.66069 142.68931 35139 ft 494 kts 91°
2026-04-30 05:15 -41.66760 142.78081 35140 ft 495 kts 91°
2026-04-30 05:16 -41.67450 142.87242 35144 ft 495 kts 91°
2026-04-30 05:16 -41.68127 142.96410 35157 ft 495 kts 91°
2026-04-30 05:17 -41.68793 143.05589 35162 ft 496 kts 91°
2026-04-30 05:17 -41.69458 143.14767 35163 ft 496 kts 91°
2026-04-30 05:18 -41.70114 143.23957 35173 ft 496 kts 90°
2026-04-30 05:18 -41.70760 143.33146 35155 ft 496 kts 90°
2026-04-30 05:19 -41.71397 143.42340 35169 ft 496 kts 90°
2026-04-30 05:19 -41.72027 143.51531 35182 ft 496 kts 90°
2026-04-30 05:20 -41.72655 143.60724 35184 ft 496 kts 90°
2026-04-30 05:20 -41.73273 143.69907 35188 ft 495 kts 90°
2026-04-30 05:21 -41.73891 143.79094 35195 ft 495 kts 90°
2026-04-30 05:21 -41.74499 143.88337 35199 ft 495 kts 90°
2026-04-30 05:22 -41.75084 143.97522 35201 ft 495 kts 90°
2026-04-30 05:22 -41.75671 144.06706 35192 ft 495 kts 90°
2026-04-30 05:23 -41.76251 144.15883 35200 ft 495 kts 90°
2026-04-30 05:23 -41.76824 144.25069 35203 ft 495 kts 90°
2026-04-30 05:24 -41.77392 144.34254 35204 ft 495 kts 90°
2026-04-30 05:24 -41.77952 144.43455 35197 ft 496 kts 90°
2026-04-30 05:25 -41.78951 144.52625 35194 ft 501 kts 98°
2026-04-30 05:25 -41.80433 144.61813 35199 ft 501 kts 98°
2026-04-30 05:26 -41.81902 144.70949 35208 ft 502 kts 98°
2026-04-30 05:26 -41.83366 144.80093 35214 ft 502 kts 98°
2026-04-30 05:27 -41.84818 144.89235 35197 ft 502 kts 98°
2026-04-30 05:27 -41.86262 144.98387 35230 ft 500 kts 98°
2026-04-30 05:28 -41.87691 145.07510 35231 ft 499 kts 98°
2026-04-30 05:28 -41.89113 145.16626 35252 ft 499 kts 98°
2026-04-30 05:29 -41.90532 145.25740 35239 ft 498 kts 98°
2026-04-30 05:29 -41.91944 145.34848 35231 ft 498 kts 98°
2026-04-30 05:30 -41.93341 145.43956 35241 ft 498 kts 98°
2026-04-30 05:30 -41.94727 145.53068 35242 ft 498 kts 98°
2026-04-30 05:31 -41.96110 145.62183 35263 ft 498 kts 98°
2026-04-30 05:31 -41.97488 145.71293 35261 ft 498 kts 98°
2026-04-30 05:32 -41.98870 145.80473 35271 ft 497 kts 98°
2026-04-30 05:32 -42.00222 145.89559 34982 ft 494 kts 98°
2026-04-30 05:33 -42.00892 145.94090 34340 ft 494 kts 98°
2026-04-30 05:33 -42.01559 145.98616 33848 ft 492 kts 98°
2026-04-30 05:33 -42.02227 146.03146 33583 ft 495 kts 98°
2026-04-30 05:33 -42.02897 146.07693 33319 ft 498 kts 98°
2026-04-30 05:34 -42.03570 146.12280 33058 ft 500 kts 98°
2026-04-30 05:34 -42.04241 146.16862 32800 ft 500 kts 98°
2026-04-30 05:34 -42.04914 146.21460 32541 ft 501 kts 98°
2026-04-30 05:34 -42.05585 146.26063 32170 ft 502 kts 98°
2026-04-30 05:35 -42.06257 146.30709 31070 ft 510 kts 98°
2026-04-30 05:35 -42.06937 146.35384 30455 ft 506 kts 98°
2026-04-30 05:35 -42.07611 146.40014 29637 ft 504 kts 98°
2026-04-30 05:35 -42.08282 146.44652 28675 ft 505 kts 98°
2026-04-30 05:36 -42.08950 146.49312 27499 ft 510 kts 98°
2026-04-30 05:36 -42.09624 146.54026 26443 ft 513 kts 98°
2026-04-30 05:36 -42.10294 146.58711 25728 ft 507 kts 98°
2026-04-30 05:36 -42.10957 146.63368 24692 ft 508 kts 97°
2026-04-30 05:37 -42.11628 146.68129 23519 ft 512 kts 97°
2026-04-30 05:37 -42.12285 146.72770 22745 ft 493 kts 97°
2026-04-30 05:37 -42.12922 146.77267 21728 ft 482 kts 98°
2026-04-30 05:37 -42.13540 146.81632 21028 ft 467 kts 98°
2026-04-30 05:38 -42.14136 146.85881 20391 ft 459 kts 97°
2026-04-30 05:38 -42.14723 146.90093 19707 ft 454 kts 98°
2026-04-30 05:38 -42.15298 146.94248 19074 ft 449 kts 98°
2026-04-30 05:38 -42.15870 146.98421 18428 ft 444 kts 98°
2026-04-30 05:39 -42.16497 147.02475 17791 ft 440 kts 104°
2026-04-30 05:39 -42.17588 147.06293 17199 ft 436 kts 115°
2026-04-30 05:39 -42.19234 147.09836 16764 ft 429 kts 127°
2026-04-30 05:39 -42.21244 147.12788 16541 ft 416 kts 136°
2026-04-30 05:40 -42.23346 147.15388 16119 ft 407 kts 137°
2026-04-30 05:40 -42.24735 147.17109 15502 ft 412 kts 136°
2026-04-30 05:40 -42.26847 147.19735 14836 ft 411 kts 136°
2026-04-30 05:40 -42.28943 147.22347 14243 ft 408 kts 136°
2026-04-30 05:41 -42.31014 147.24894 13322 ft 399 kts 140°
2026-04-30 05:41 -42.33286 147.27028 12435 ft 398 kts 152°
2026-04-30 05:41 -42.35703 147.28793 12151 ft 394 kts 152°
2026-04-30 05:41 -42.38130 147.30596 11755 ft 391 kts 152°
2026-04-30 05:42 -42.40502 147.32381 11379 ft 388 kts 152°
2026-04-30 05:42 -42.42852 147.34159 10823 ft 387 kts 152°
2026-04-30 05:42 -42.45234 147.35961 10346 ft 381 kts 152°
2026-04-30 05:42 -42.47517 147.37689 9972 ft 376 kts 152°
2026-04-30 05:43 -42.49802 147.39409 9580 ft 375 kts 153°
2026-04-30 05:43 -42.52072 147.41111 9093 ft 370 kts 153°
2026-04-30 05:43 -42.54308 147.42785 8600 ft 365 kts 153°
2026-04-30 05:43 -42.56515 147.44441 8123 ft 361 kts 153°
2026-04-30 05:44 -42.58662 147.46169 7658 ft 357 kts 148°
2026-04-30 05:44 -42.60666 147.48152 7197 ft 356 kts 142°
2026-04-30 05:44 -42.62582 147.50335 6742 ft 353 kts 142°
2026-04-30 05:44 -42.64458 147.52476 6278 ft 351 kts 142°
2026-04-30 05:45 -42.66314 147.54592 5819 ft 346 kts 141°
2026-04-30 05:45 -42.68150 147.56682 5370 ft 343 kts 141°
2026-04-30 05:45 -42.69961 147.58742 4925 ft 332 kts 141°
2026-04-30 05:45 -42.71698 147.60720 4482 ft 320 kts 141°
2026-04-30 05:46 -42.73378 147.62636 4097 ft 309 kts 141°
2026-04-30 05:46 -42.74993 147.64480 3824 ft 297 kts 141°
2026-04-30 05:46 -42.76565 147.66275 3565 ft 286 kts 141°
2026-04-30 05:46 -42.78050 147.67979 3327 ft 274 kts 142°
2026-04-30 05:47 -42.79535 147.69641 3074 ft 271 kts 146°
2026-04-30 05:47 -42.81231 147.70563 2824 ft 260 kts 179°
2026-04-30 05:47 -42.82986 147.70283 2568 ft 245 kts 207°
2026-04-30 05:47 -42.84378 147.69148 2328 ft 227 kts 222°
2026-04-30 05:48 -42.85641 147.67932 2064 ft 218 kts 222°
2026-04-30 05:48 -42.86859 147.66765 1807 ft 209 kts 220°
2026-04-30 05:48 -42.87902 147.65423 1558 ft 199 kts 244°
2026-04-30 05:48 -42.88665 147.63856 1574 ft 200 kts 242°
2026-04-30 05:49 -42.89305 147.62290 1516 ft 178 kts 262°
2026-04-30 05:49 -42.89227 147.60730 1295 ft 158 kts 297°
2026-04-30 05:49 -42.88834 147.59432 1133 ft 139 kts 298°
2026-04-30 05:49 -42.88477 147.58232 992 ft 137 kts 297°
2026-04-30 05:50 -42.88006 147.57153 834 ft 129 kts 314°
2026-04-30 05:50 -42.87397 147.56245 729 ft 130 kts 321°
2026-04-30 05:50 -42.86735 147.55397 621 ft 131 kts 319°
2026-04-30 05:50 -42.86064 147.54524 456 ft 129 kts 318°
2026-04-30 05:51 -42.85430 147.53633 313 ft 129 kts 320°
2026-04-30 05:51 -42.84783 147.52763 132 ft 132 kts 322°
2026-04-30 05:51 -42.84150 147.51909 22 ft 112 kts 316°
2026-04-30 05:51 -42.83782 147.51407 23 ft 19 kts 314°
2026-04-30 05:52 -42.83808 147.51269 23 ft 18 kts 231°
2026-04-30 05:52 -42.83863 147.51163 23 ft 11 kts 278°
2026-04-30 05:52 -42.83809 147.51073 22 ft 14 kts 314°
2026-04-30 05:52 -42.83734 147.50971 22 ft 17 kts 315°
2026-04-30 05:53 -42.83646 147.50851 22 ft 19 kts 315°
2026-04-30 05:53 -42.83566 147.50740 24 ft 13 kts 300°
2026-04-30 05:53 -42.83597 147.50659 23 ft 6 kts 224°
2026-04-30 05:53 -42.83616 147.50634 22 ft 0 kts 222°
2026-04-30 05:54 -42.83626 147.50623 22 ft 3 kts 222°
2026-04-30 05:54 -42.83648 147.50593 23 ft 4 kts 225°
2026-04-30 05:55 -42.83656 147.50581 22 ft 0 kts 225°